Weather History for Garden City, KS

Change the Weather History Date:

Thursday, January 2, 2014

  Actual Average Record
Temperature  
Mean Temperature 29 °F 31 °F  
Max Temperature 49 °F 44 °F 72 °F (1997)
Min Temperature 9 °F 18 °F -13 °F (1979)
Degree Days  
Heating Degree Days 36 34  
Month to date heating degree days 79 68  
Since 1 July heating degree days 2200 2191  
Cooling Degree Days 0 0  
Month to date cooling degree days 0 0  
Year to date cooling degree days 0 0  
Moisture  
Dew Point 18 °F    
Average Humidity 62    
Maximum Humidity 92    
Minimum Humidity 31    
Precipitation  
Precipitation 0.00 in 0.01 in 0.49 in (1951)
Month to date precipitation T 0.02  
Year to date precipitation T 0.02  
Sea Level Pressure  
Sea Level Pressure 30.37 in    
Wind  
Wind Speed 9 mph (WSW)    
Max Wind Speed 17 mph    
Max Gust Speed 21 mph    
Visibility 10 miles    
Events      
T = Trace of Precipitation, MM = Missing Value Source: NWS Daily Summary

Daily Weather History Graph

Daily Weather History Graph

Search for Another Location

Airport:

Trip Planner

Search our weather history database for the weather conditions in past years. The results will help you decide how hot, cold, wet, or windy it might be!

Date:

Astronomy

Jan. 02, 2014 Rise Set
Actual Time 7:58 AM CST 5:35 PM CST
Civil Twilight 7:29 AM CST 6:04 PM CST
Nautical Twilight 6:56 AM CST 6:37 PM CST
Astronomical Twilight 6:24 AM CST 7:09 PM CST
Moon 8:43 AM CST (1/2) 7:32 PM CST (1/2)
Length of Visible Light 10h 35m
Length of Day
9h 36m
Waxing Crescent, 3% of the Moon is Illuminated
Jan 2
Waxing Crescent
Jan 7
First Quarter
Jan 15
Full
Jan 23
Last Quarter
Jan 30
New

Hourly Weather History & Observations

Time (CST) Temp. Windchill Dew Point Humidity Pressure Visibility Wind Dir Wind Speed Gust Speed Precip Events Conditions
12:54 AM 12.9 °F 2.6 °F 10.0 °F 88% 30.48 in 8.0 mi WNW 6.9 mph - N/A   Clear
1:54 AM 10.9 °F 1.4 °F 8.1 °F 88% 30.48 in 8.0 mi WNW 5.8 mph - N/A   Clear
2:54 AM 12.9 °F 5.2 °F 10.0 °F 88% 30.47 in 8.0 mi WNW 4.6 mph - N/A   Clear
3:54 AM 12.9 °F 5.2 °F 10.0 °F 88% 30.46 in 7.0 mi SW 4.6 mph - N/A   Clear
4:54 AM 12.9 °F 3.8 °F 10.0 °F 88% 30.45 in 7.0 mi SW 5.8 mph - N/A   Clear
5:54 AM 10.9 °F -1.8 °F 8.1 °F 88% 30.44 in 9.0 mi West 9.2 mph - N/A   Clear
6:54 AM 15.1 °F 4.2 °F 10.9 °F 84% 30.43 in 10.0 mi WNW 8.1 mph - N/A   Clear
7:54 AM 17.1 °F 7.6 °F 14.0 °F 88% 30.43 in 10.0 mi West 6.9 mph - N/A   Clear
8:54 AM 19.9 °F 8.6 °F 17.1 °F 89% 30.43 in 10.0 mi West 10.4 mph - N/A   Clear
9:54 AM 27.0 °F 15.2 °F 23.0 °F 85% 30.44 in 10.0 mi West 15.0 mph - N/A   Clear
10:54 AM 34.0 °F 24.6 °F 25.0 °F 70% 30.43 in 10.0 mi West 13.8 mph - N/A   Clear
11:54 AM 39.0 °F 31.0 °F 27.0 °F 62% 30.41 in 10.0 mi West 13.8 mph - N/A   Clear
12:54 PM 44.1 °F 37.1 °F 26.1 °F 49% 30.36 in 10.0 mi WNW 15.0 mph - N/A   Clear
1:54 PM 46.9 °F - 24.1 °F 41% 30.34 in 10.0 mi WNW 11.5 mph - N/A   Clear
2:54 PM 48.0 °F - 23.0 °F 37% 30.31 in 10.0 mi NW 8.1 mph - N/A   Clear
3:54 PM 48.0 °F - 19.9 °F 33% 30.30 in 10.0 mi NW 5.8 mph - N/A   Clear
4:54 PM 48.0 °F - 19.9 °F 33% 30.30 in 10.0 mi Calm Calm - N/A   Clear
5:54 PM 42.1 °F 37.7 °F 19.9 °F 41% 30.31 in 10.0 mi SSE 6.9 mph - N/A   Clear
6:54 PM 32.0 °F 24.8 °F 19.0 °F 59% 30.32 in 10.0 mi SE 8.1 mph - N/A   Clear
7:54 PM 32.0 °F 23.6 °F 21.0 °F 64% 30.31 in 10.0 mi SE 10.4 mph - N/A   Clear
8:54 PM 28.9 °F 19.8 °F 21.9 °F 75% 30.30 in 10.0 mi SSE 10.4 mph - N/A   Clear
9:54 PM 28.9 °F 19.2 °F 23.0 °F 78% 30.27 in 10.0 mi SE 11.5 mph - N/A   Clear
10:54 PM 27.0 °F 16.1 °F 21.9 °F 81% 30.24 in 10.0 mi SSE 12.7 mph - N/A   Clear
11:54 PM 27.0 °F 16.1 °F 21.9 °F 81% 30.20 in 10.0 mi SSE 12.7 mph - N/A   Clear